User: anonymous   Login
Location: Unspecified
(0.0000°N, 0.0000°E)
Time: 12:52:35
(UTC+00:00)
Language:

Kitsat-3 - Orbit

View from above orbital plane
View from above orbital plane
View from above satellite
View from above satellite

Ground track
Ground track

The orbit data is extracted from the following two-line orbital elements,

1 25756U 99029A   24260.98985616  .00001252  00000-0  30162-3 0  9995
2 25756  98.6591 263.2263 0014485  57.0901 303.1686 14.55013251342196
Epoch (UTC): 16 September 2024 23:45:23
Eccentricity: 0.0014485
inclination: 98.6591°
perigee height: 699 km
apogee height: 719 km
right ascension of ascending node: 263.2263°
argument of perigee: 57.0901°
revolutions per day: 14.55013251
mean anomaly at epoch: 303.1686°
orbit number at epoch: 34219

The dashed part of the orbit path shows where the satellite is in the earth's shadow,  

DLR